Погода в Волоконовке

Россия / Белгородская область     51°02′59″N   37°51′42″E
темп.,
°C
ветер,
м/с
пор.,
м/с
влажн.,
%
обл.,
%
осадки,
мм/ч
давл.,
гПа
погр.,
м
9 мая, вс
вс900:00+6з61094100 0.5 1009604
03:00+5зсз61095100 0.9 1010903
06:00+5зсз71192100 0.1 1010945
09:00+5сз81183100 0.1 1013959
12:00+7сз71177100 0.0 10151191
15:00+8сз71067100 0.1 10171586
18:00+9ссз7116692 0.0 10181489
21:00+5сз410795 0.1 1021226
10 мая, пн
пн1000:00+4сз412865 0.0 1021251
03:00+3сз38835 0.0 1023189
06:00+4ссз6147850 0.0 1023409
09:00+10с8135869 0.0 10231563
12:00+12с101348100 0.0 10221976
15:00+13с91351100 0.0 10201859
18:00+10с91667100 0.1 10191225
21:00+8с101987100 1.4 1018816
11 мая, вт
вт1100:00+9ссв10179091 0.6 1016606
03:00+9ссв91790100 0.6 1016611
06:00+9ссв8159487 0.6 1016532
09:00+11всв71292100 1.0 10161183
12:00+10в71081100 1.4 10191059
15:00+11всв71269100 1.4 10201438
18:00+11в9137411 0.2 10211339
21:00+7в71384100 0.3 10231109
12 мая, ср
ср1200:00+7в6118599 0.0 1024523
03:00+7всв51380100 0.0 1023438
06:00+8всв51382100 0.0 1022454
09:00+11в61070100 0.0 1021649
12:00+12вюв5877100 0.5 10191124
15:00+11вюв477964 1.4 1018354
18:00+13ююв587999 2.5 1017977
21:00+9юв2696100 5.2 1018261
13 мая, чт
чт1300:00+10вюв389685 1.0 1017298
03:00+9вюв359693 1.6 1018104
06:00+10юв2595100 0.1 1018148
09:00+13ююв46823 0.1 1018390
12:00+19ююв566251 0.0 10171476
15:00+20юв455868 0.1 10171606
18:00+19вюв3667100 0.0 1017258
21:00+15в3581100 0.0 101768